Regional Weather Roundup
Issued by NWS

Home | Current Version | Previous Version | Text Only | Print | Product List | Glossary Off
Versions: 1 2 3 4 5 6 7 8 9 10 11 12 13 14 15 16 17 18 19 20 21 22 23 24 25 26 27

000
ASUS45 KBOU 030407
RWRCO

WEATHER ROUNDUP FOR COLORADO
NATIONAL WEATHER SERVICE DENVER/BOULDER CO
1000 PM MDT MON MAY 02 2016

NOTE: "FAIR" INDICATES FEW OR NO CLOUDS BELOW 12000 FEET WITH NO
SIGNIFICANT WEATHER AND/OR OBSTRUCTIONS TO VISIBILITY.

COZ001>005-013-030-031-030500-
...NORTHWEST COLORADO...

CITY           SKY/WX    TMP DP  RH WIND       PRES   REMARKS
CRAIG          FAIR      41  27  57 CALM      30.21R
HAYDEN         FAIR      43  25  49 SW7       30.22R
MEEKER         FAIR      44  30  57 NW3       30.21R
MOUNT WERNER   NOT AVBL
STEAMBOAT SPGS FAIR      44  23  45 CALM      30.22R
WALDEN         FAIR      36  14  41 NW6       30.27R
$$

COZ006>008-011-030500-
...WEST CENTRAL VALLEYS...

CITY           SKY/WX    TMP DP  RH WIND       PRES   REMARKS
GRAND JUNCTION FAIR      56  34  43 N10       30.15R
MONTROSE       FAIR      50  31  48 S7        30.20R
EAGLE          FAIR      50  27  40 CALM      30.23R
RIFLE          FAIR      52  26  36 W6        30.17R
DELTA          NOT AVBL
NUCLA          NOT AVBL
$$

COZ017>023-064>068-030500-
...SOUTHWEST COLORADO...

CITY           SKY/WX    TMP DP  RH WIND       PRES   REMARKS
DURANGO        FAIR      41  34  76 S5        30.21R
CORTEZ         FAIR      45  38  76 N3        30.20R
PAGOSA SPRINGS FAIR      39  35  84 CALM      30.26R
TELLURIDE      FAIR      36  33  89 SE5       30.32R
WOLF CREEK PAS FAIR      25  25 100 SW7       30.38S FOG     WCI  17
$$

COZ009-010-012-014-032>034-037-058>063-030500-
...CENTRAL COLORADO...

CITY           SKY/WX    TMP DP  RH WIND       PRES   REMARKS
ASPEN          CLOUDY    43  28  55 SW7       30.23R
BUENA VISTA    FAIR      38  30  72 W3        30.23R
COPPER MTN     NOT AVBL
BERTHOUD PASS  LGT SNOW  21  10  63 NW29G39   30.33R WCI   3
COTTONWOOD PAS FAIR      39  21  48 W6        30.29R
GUNNISON       FAIR      43  25  49 S5        30.25R
KREMMLING      MOCLDY    46  19  34 N5        30.24R
LEADVILLE      FAIR      33  22  63 N7        30.28R WCI  27
MONARCH PASS   FAIR      27  23  86 MISG      30.45R
SALIDA         FAIR      45  29  54 NW6       30.27R
SUNLIGHT       NOT AVBL
WILKERSON PASS FAIR      30  19  64 N12G20    30.34R WCI  21
$$

COZ069>075-030500-
...SAN LUIS VALLEY/SANGRE DE CRISTO MOUNTAINS...

CITY           SKY/WX    TMP DP  RH WIND       PRES   REMARKS
ALAMOSA        FAIR      40  33  76 SW5       30.20R
LA VETA PASS   FAIR      32  30  93 MISG      30.27S
SAGUACHE       MOCLDY    41  32  70 N6        30.22R
$$

COZ035-036-038>040-030500-
...NORTHERN COLORADO FRONT RANGE...

CITY           SKY/WX    TMP DP  RH WIND       PRES   REMARKS
DENVER INTL AP FAIR      50  27  40 SW5       30.14R
DMNS CITY PARK   N/A     49  26  42 SW3       30.14S
AURORA         FAIR      46  29  52 SW3       30.16R
FRONT RANGE AP NOT AVBL
ERIE MUNI ARPT FAIR      44  36  71 SW3       30.14R
BOULDER MUN AP FAIR      50  30  46 SW7       30.14R
CENTENNIAL     FAIR      46  29  51 SW5       30.16R
BROOMFIELD     PTCLDY    48  30  49 W7        30.15R
FORT COLLINS   FAIR      52  30  43 CALM      30.14R
LONGMONT       FAIR      48  34  59 SW3       30.16R
$$

COZ041-046-047-076>085-087-088-030500-
...PIKES PEAK/PALMER DIVIDE AND SOUTHERN FOOTHILLS...

CITY           SKY/WX    TMP DP  RH WIND       PRES   REMARKS
COLO. SPRINGS  FAIR      45  23  42 N5        30.19R
A. F. ACADEMY  FAIR      37  25  60 N3        30.19R
SCHRIEVER AFB  NOT AVBL
ELLICOTT       FAIR     N/A N/A N/A N3        30.17R
FALCON         FAIR      39  25  57 NW6       30.20R
FORT CARSON    FAIR      46  24  42 NE3       30.17R
LIMON          FAIR      33  30  88 N6        30.14R WCI  28
MONUMENT HILL  MOCLDY    36  27  69 SW8       30.21R
TRINIDAD       FAIR      42  34  73 W7        30.14S
$$

COZ042>045-048>051-090-091-030500-
...NORTHEAST COLORADO...

CITY           SKY/WX    TMP DP  RH WIND       PRES   REMARKS
GREELEY ARPT   MOCLDY    52  32  46 NW9       30.13R
AKRON          CLOUDY    47  27  45 SW14      30.07S
BURLINGTON     MOCLDY    44  30  57 SW6       30.09S
WRAY           NOT AVBL
STERLING       CLOUDY    54  32  43 NW13      30.04R
HOLYOKE        NOT AVBL
FORT MORGAN    MOCLDY    49  29  45 NW10      30.09S
$$

COZ086-089-092>099-030500-
...SOUTHEAST COLORADO...

CITY           SKY/WX    TMP DP  RH WIND       PRES   REMARKS
PUEBLO         FAIR      48  34  58 NE12      30.13R
LA JUNTA       FAIR      50  31  48 SW6       30.11R
LAMAR          FAIR      40  33  76 SW7       30.09R
SPRINGFIELD      N/A     37  33  85 SW6       30.12S
$$




USA.gov is the U.S. government's official web portal to all federal, state and local government web resources and services.